Theta_e
310 310 310 310 309 310 310 310 310 310 310 310 310 310 310 310 310 311 311 311 311 311 311 312 312 312 313 313 314 314 314 315 315 314 315 315 316 316 315 314 314 313 314 314 314 313 314 314 316 315 315 316 316 318 318 320 319 318 326 325 322 328 327 328 326 317 317 318 316 316 316 315 316 316 316 316 316 316 316 315 316 316 316 316 316 316 316 316
309 310 310 310 310 310 310 310 310 310 310 310 311 310 311 311 311 311 311 311 311 311 312 312 312 312 313 313 314 314 315 314 315 315 315 315 315 314 314 314 314 315 314 314 314 313 314 315 316 316 315 316 317 318 319 320 319 321 327 323 327 335 325 321 321 315 316 316 315 316 315 315 316 316 316 316 315 314 315 315 315 315 315 316 315 316 316 316
309 309 309 310 310 310 310 310 310 310 310 310 310 310 310 310 310 311 311 311 311 311 311 312 312 313 313 314 314 314 314 315 315 315 315 314 314 314 314 314 315 315 314 314 314 314 315 315 315 316 316 316 317 319 319 320 319 320 321 324 334 330 319 317 317 316 317 315 315 315 316 315 316 316 316 316 314 314 315 315 314 315 316 315 315 315 315 316
309 309 309 309 309 309 310 310 310 310 310 310 310 310 310 310 310 310 311 311 311 312 312 312 313 313 314 314 315 316 316 317 316 315 314 314 314 314 314 315 315 315 314 314 314 314 315 315 316 315 316 316 316 318 320 320 320 319 319 326 329 319 317 320 317 318 318 316 315 315 316 315 316 316 316 316 316 315 314 315 315 315 315 315 316 315 315 315
309 309 309 309 309 309 309 309 309 309 309 310 310 310 311 311 311 311 312 312 312 313 313 314 315 315 316 317 318 318 318 319 317 315 314 314 314 314 314 315 316 315 314 314 314 314 315 316 315 315 316 316 315 318 319 319 319 319 320 322 320 316 318 319 317 319 317 317 316 315 315 315 316 316 316 316 316 316 315 315 315 315 316 316 316 316 315 315
309 309 309 309 309 309 310 310 310 310 310 311 311 311 312 312 312 313 313 314 314 315 316 317 318 318 318 318 318 317 318 319 317 316 316 314 314 314 315 316 316 315 314 314 314 314 315 316 315 315 315 315 315 316 317 318 319 320 320 318 317 318 317 318 318 318 317 316 315 315 316 315 315 316 316 316 316 316 315 316 316 316 316 316 316 315 316 316
309 309 309 310 310 310 310 311 311 311 311 312 312 313 313 314 315 316 317 317 318 318 318 317 317 316 315 315 315 315 316 318 318 318 318 316 316 317 317 317 316 315 314 314 314 314 314 315 315 314 315 315 314 315 315 315 317 320 321 318 318 318 316 318 318 317 317 315 315 315 315 314 314 315 316 315 315 315 315 316 316 316 316 315 316 315 315 316
310 310 310 310 311 311 311 312 313 313 314 315 315 316 317 318 318 318 318 318 317 316 315 315 315 314 315 315 316 315 315 318 319 319 319 318 319 319 318 317 315 314 314 313 314 313 314 314 315 314 314 315 314 314 315 314 315 319 321 317 316 317 316 317 316 316 316 315 315 315 313 313 314 314 314 314 315 316 317 317 316 316 316 316 315 315 314 315
313 313 313 314 314 315 316 316 317 317 318 318 318 318 318 318 317 317 316 316 315 315 315 315 315 315 316 317 317 316 317 318 320 320 320 320 320 319 318 317 315 314 314 313 314 313 314 314 314 315 314 314 315 314 314 315 316 316 316 314 313 314 314 315 315 315 315 315 315 314 313 314 313 313 314 314 315 317 317 317 317 316 316 315 314 314 314 314
317 317 317 317 318 318 318 318 318 318 318 317 317 317 316 316 316 315 315 315 315 316 316 316 317 317 318 319 318 317 318 319 319 319 319 319 319 318 317 316 315 315 314 314 314 314 314 315 315 315 315 315 315 314 313 315 316 314 313 313 313 313 314 314 314 315 314 314 313 313 313 313 312 313 314 316 317 317 317 316 317 316 314 313 313 314 314 315
317 317 317 317 317 317 317 317 316 316 316 316 316 316 316 315 316 316 316 316 316 316 317 317 317 318 319 320 318 317 318 319 318 319 319 319 318 318 317 316 315 315 315 314 314 314 314 315 316 315 316 315 314 314 313 313 314 313 313 314 314 313 314 314 313 314 314 313 314 313 313 312 312 313 315 316 317 317 316 317 316 315 313 313 314 314 314 315
316 316 316 316 316 316 316 316 316 316 316 316 316 316 316 315 316 316 316 316 317 317 317 318 318 319 320 319 319 318 318 318 319 319 319 319 318 317 317 316 316 315 315 315 314 314 314 315 316 316 316 315 314 314 314 314 314 313 313 315 316 313 314 314 313 313 312 313 314 312 314 316 315 315 317 316 317 317 316 316 315 314 313 313 314 314 314 314
316 316 316 316 316 316 316 316 316 316 316 316 316 315 315 315 315 316 316 316 317 317 317 318 319 320 320 319 319 319 319 319 319 319 319 319 318 317 317 316 316 316 316 315 314 314 315 315 316 316 316 315 315 314 314 313 313 315 313 313 315 315 316 315 312 312 312 313 313 313 316 322 321 316 316 317 316 316 316 315 313 312 313 313 313 314 313 313
315 315 315 315 315 315 315 315 315 315 315 315 315 315 315 315 315 316 316 317 318 318 318 319 320 320 319 319 319 319 319 319 319 319 319 319 318 318 317 316 316 316 315 315 315 315 315 316 316 316 316 315 315 314 315 314 313 314 312 314 316 315 320 318 312 313 314 314 312 313 317 322 322 317 316 318 316 315 315 313 312 312 313 313 313 313 312 312
313 313 313 313 313 313 314 314 314 314 313 314 314 314 314 314 315 316 317 318 318 319 320 320 319 319 318 318 319 319 319 319 319 319 318 318 318 317 316 316 315 315 315 314 314 315 316 317 317 316 316 315 314 316 318 319 321 319 313 321 322 315 321 321 312 312 316 315 311 313 318 319 318 316 316 317 316 316 314 312 312 313 313 312 312 311 311 311
312 312 312 312 312 313 313 313 313 313 313 313 313 313 314 314 316 317 318 318 319 320 320 319 319 318 317 318 319 319 319 319 319 318 318 317 317 316 316 315 315 314 314 314 314 315 316 317 316 316 315 314 315 320 323 321 326 324 315 321 325 317 318 319 315 313 313 314 312 312 317 318 317 315 316 318 316 316 313 311 312 313 312 311 310 310 310 309
313 312 312 312 313 313 313 313 313 312 313 313 313 314 315 316 317 318 319 319 320 320 320 319 319 318 318 318 318 318 318 318 318 318 318 317 316 316 315 315 315 314 314 314 314 314 314 315 314 315 314 313 315 320 321 319 322 324 318 317 320 318 315 317 320 315 311 314 314 313 315 316 317 314 315 318 316 314 312 311 311 311 310 310 309 309 309 309
314 314 313 313 313 313 313 313 313 313 313 314 314 314 317 319 319 319 320 320 320 319 319 318 317 319 321 319 318 318 318 318 318 317 317 316 316 315 314 314 314 314 313 313 313 313 313 312 313 316 315 312 314 316 319 319 321 324 322 319 319 319 316 316 319 317 315 317 317 317 317 316 317 314 313 316 315 314 312 311 311 310 308 308 308 308 308 308
315 314 314 313 313 313 313 313 314 314 315 316 317 318 319 320 320 320 320 320 320 321 321 319 317 321 323 318 317 318 319 319 318 317 316 316 315 314 314 314 314 314 313 315 315 312 312 313 313 317 316 314 314 314 316 318 319 321 321 319 320 320 318 317 316 315 315 316 318 319 319 318 318 317 314 313 313 313 312 311 310 308 307 306 306 306 306 306
315 314 314 314 313 313 314 315 315 316 317 318 320 321 321 320 321 321 320 320 320 321 322 320 318 319 320 318 318 319 319 318 318 317 316 316 315 314 314 314 314 314 314 319 319 312 312 316 316 317 318 316 314 313 313 314 315 315 315 317 318 317 317 316 317 317 313 316 321 320 318 319 320 320 314 311 313 313 310 310 308 306 305 305 305 305 305 305
315 315 314 314 314 315 316 317 318 319 319 320 321 321 321 320 322 321 319 319 320 320 320 320 319 319 319 320 319 319 319 318 318 318 317 316 315 315 315 314 315 316 315 316 316 312 312 316 317 319 318 316 315 313 312 312 312 313 314 316 317 317 317 316 317 319 313 315 322 320 317 320 320 317 312 309 312 311 308 308 306 305 304 304 304 304 304 304
316 315 315 314 315 317 319 319 320 320 320 321 321 321 320 320 320 320 319 319 319 320 320 320 320 320 320 320 320 320 319 319 319 318 318 316 315 316 316 315 317 318 315 313 314 314 314 316 317 316 314 312 314 313 312 313 313 314 315 316 318 319 319 319 320 319 315 315 323 323 317 320 319 313 308 308 309 308 307 307 305 305 304 303 304 304 304 304
317 316 315 315 317 319 320 321 320 320 320 321 320 320 320 320 320 320 319 318 319 320 320 320 320 320 320 320 320 320 318 318 319 319 318 316 315 316 314 315 316 318 317 316 317 317 317 319 316 312 311 312 314 314 314 315 315 317 318 317 319 319 319 322 322 321 319 316 320 321 317 320 319 312 308 307 306 306 306 305 305 304 304 303 303 303 303 304
317 316 315 316 318 320 321 321 320 319 320 320 320 320 320 321 321 320 318 316 317 319 319 319 319 318 319 318 318 319 318 319 319 318 318 317 315 315 314 314 316 317 317 316 316 318 319 318 314 311 313 315 315 316 316 317 317 319 320 318 319 319 319 321 322 321 321 320 318 316 319 326 322 314 311 308 306 306 305 304 304 303 303 303 302 302 303 303
317 316 316 318 320 321 321 321 319 319 320 320 320 320 321 321 320 318 317 317 319 319 318 318 317 317 317 317 317 317 317 318 318 318 318 317 316 315 314 313 315 317 317 315 315 316 317 315 313 315 317 316 316 318 319 318 319 321 323 321 319 320 321 321 320 319 321 325 320 314 322 332 327 318 312 308 307 306 305 304 303 303 302 302 302 302 302 302
316 316 317 319 320 321 322 321 319 319 320 320 320 321 321 321 319 317 317 321 323 321 319 318 318 317 315 316 316 316 318 318 316 317 317 316 316 315 315 315 314 316 316 315 315 316 317 315 315 318 320 319 319 320 321 320 319 321 323 323 321 319 320 321 319 319 323 325 319 315 321 327 327 321 312 308 308 306 305 304 303 303 302 301 301 301 301 302
316 316 317 320 321 321 322 321 320 321 321 321 321 321 321 320 318 316 318 323 326 322 319 318 316 316 314 314 315 316 321 319 314 315 315 315 315 314 316 317 315 315 314 314 318 319 318 317 317 317 320 321 320 320 321 320 321 324 323 324 326 322 322 323 319 319 322 320 319 320 319 319 322 321 312 308 309 307 305 304 303 302 301 301 301 300 301 301
316 316 318 320 320 321 321 321 322 321 321 322 321 321 321 319 317 316 320 327 326 319 318 315 314 314 312 313 314 314 316 315 314 315 314 314 314 313 315 316 317 318 313 314 323 321 316 318 319 319 319 320 320 321 322 320 321 326 321 319 324 323 322 323 319 320 319 316 320 323 317 316 321 319 310 309 312 308 306 305 303 302 301 301 300 300 300 300
316 316 318 319 320 321 321 322 322 322 322 321 321 321 320 318 317 316 321 327 323 317 316 313 313 313 311 312 313 312 311 311 313 314 313 314 314 313 314 314 314 315 311 312 321 321 316 316 317 319 321 320 323 323 323 322 320 320 317 318 324 323 321 321 319 321 319 316 320 321 317 316 323 321 310 310 315 311 306 305 303 302 301 300 299 299 299 299
316 316 318 318 319 320 321 322 322 322 321 320 320 321 319 318 318 319 324 325 320 317 314 312 313 312 311 312 313 312 310 310 311 312 312 313 313 312 312 312 310 315 317 316 319 318 314 312 312 316 318 318 321 317 314 317 315 313 316 322 326 325 323 323 321 320 319 319 321 321 318 315 321 324 315 311 314 311 306 304 303 302 301 300 299 299 299 299
317 316 317 318 320 321 321 322 322 321 320 319 320 320 318 319 321 323 324 321 318 318 313 313 314 312 312 316 316 312 310 310 310 312 313 312 313 312 312 312 312 317 322 319 320 318 314 313 313 314 313 313 317 315 311 312 311 314 322 323 323 325 325 323 322 320 319 322 324 321 316 313 318 323 317 311 310 308 305 304 303 301 300 300 299 298 298 299
317 317 317 319 321 321 322 321 321 320 319 319 320 319 318 320 322 322 323 321 321 320 316 316 315 313 315 317 318 315 312 312 310 312 315 315 315 314 314 318 318 319 321 321 321 320 318 319 315 313 312 313 317 319 315 315 315 318 322 321 321 323 321 320 321 320 319 321 320 318 316 315 318 317 311 309 307 306 305 303 302 301 300 299 298 298 298 298
318 317 318 320 321 321 321 320 321 319 319 319 319 319 320 321 322 321 322 324 323 318 317 318 317 317 318 317 318 317 314 315 312 311 315 315 315 316 316 319 318 317 319 320 320 319 322 323 316 313 314 313 317 319 318 320 318 316 318 320 322 321 319 323 321 316 317 319 316 314 314 317 319 314 306 305 305 303 303 302 301 301 300 299 298 298 298 298
320 319 319 320 321 321 320 320 320 318 318 319 318 319 320 321 321 320 321 322 321 318 317 319 319 318 318 318 321 320 316 317 314 312 315 315 315 319 319 317 316 316 318 318 318 319 322 323 320 318 316 314 316 316 320 325 319 315 318 319 320 322 322 324 322 318 319 321 316 312 314 320 321 311 303 302 302 301 303 302 301 300 299 299 298 298 298 299
321 320 319 320 320 321 320 320 319 318 318 318 318 320 320 320 321 321 322 321 320 319 316 317 320 319 319 321 322 319 317 319 317 314 317 317 318 322 324 322 318 316 318 319 319 319 318 321 323 317 312 314 315 313 316 324 321 315 316 317 317 321 321 319 320 320 320 320 318 316 317 316 313 306 301 301 301 300 301 300 300 300 299 298 298 297 298 299
320 319 320 320 320 320 320 319 319 318 318 318 319 320 319 320 322 322 322 319 319 320 317 319 322 321 322 324 323 319 315 318 318 316 318 318 320 322 324 324 320 315 316 319 320 319 315 320 321 314 311 313 313 313 313 317 320 315 313 318 318 317 317 318 320 317 315 318 318 318 317 310 307 306 303 302 302 301 300 299 299 299 298 298 297 298 298 299
318 318 319 319 319 320 319 319 319 318 318 318 319 319 318 318 319 320 320 316 317 320 320 321 322 321 323 323 323 321 317 317 319 318 320 320 318 320 321 319 316 314 316 317 319 319 315 319 319 315 317 314 308 310 311 310 315 318 317 319 316 315 317 320 322 319 316 318 317 317 318 313 313 312 304 301 304 302 301 300 298 298 298 298 298 298 298 298
317 317 317 318 318 319 318 318 318 318 318 318 318 318 318 318 316 316 317 315 315 319 320 321 321 320 321 321 322 322 317 318 319 318 322 321 317 319 319 317 314 313 313 312 316 319 315 317 319 315 317 315 309 312 315 310 310 315 317 315 314 317 320 319 319 320 318 317 318 320 319 314 314 313 306 304 305 303 302 301 299 299 298 298 298 297 297 297
318 317 317 317 317 317 317 317 317 317 317 318 318 317 318 318 316 314 315 315 315 317 319 321 320 319 319 320 322 321 317 319 320 318 319 319 317 316 314 315 314 311 310 311 316 320 316 316 319 314 313 314 313 314 319 317 311 310 312 312 314 318 320 318 317 319 320 316 317 320 318 317 317 314 310 308 304 302 302 301 300 299 298 299 299 298 297 298
316 316 315 316 316 316 316 316 317 317 317 317 316 316 316 316 315 315 315 315 315 317 319 320 319 319 319 319 320 319 318 320 320 318 318 318 318 315 314 316 316 313 310 310 314 318 316 315 318 317 313 314 316 316 319 321 316 313 315 316 315 315 316 317 315 317 320 318 319 317 315 319 320 312 309 307 303 302 301 301 300 299 299 300 300 299 299 299
314 314 314 314 314 315 315 315 315 316 317 317 316 316 315 314 313 314 315 315 315 315 317 319 320 319 318 318 318 317 318 320 319 317 318 318 317 316 315 315 315 314 312 312 315 317 316 316 318 318 315 316 320 318 315 319 321 319 319 318 317 316 317 316 315 315 316 316 319 316 314 318 316 307 306 306 303 302 301 300 300 300 301 301 300 300 299 299
312 312 312 313 313 314 314 314 313 313 315 316 315 315 314 313 313 313 314 314 315 314 314 316 318 318 317 317 317 317 318 319 318 317 318 317 316 315 314 311 311 312 314 317 319 314 312 317 318 317 317 317 318 313 308 312 318 317 316 316 317 317 317 317 316 317 316 314 315 315 315 317 311 304 304 304 302 301 301 301 301 301 302 302 301 300 300 299
311 311 312 312 312 312 312 313 312 312 314 313 313 313 312 312 312 313 313 314 315 315 314 314 315 316 316 316 316 317 317 317 317 317 317 317 316 313 311 310 310 310 313 317 317 312 311 315 317 316 318 317 313 311 310 311 313 313 314 315 315 315 316 317 316 317 317 315 315 315 315 315 310 303 301 301 301 301 301 302 302 302 303 303 302 301 300 299
309 309 310 310 310 310 311 312 312 312 312 311 311 312 311 311 311 312 313 314 314 315 315 314 314 315 315 315 315 316 316 316 315 315 315 316 315 310 308 310 310 309 311 314 314 312 311 315 316 315 317 316 313 313 314 315 314 314 316 314 312 313 314 313 313 313 313 314 314 314 314 314 311 305 301 301 302 302 301 302 302 302 302 302 301 300 299 298
306 307 308 308 309 309 309 311 311 311 311 311 311 311 311 310 310 311 312 312 313 314 314 314 313 313 314 314 314 315 315 315 315 314 314 315 315 309 306 309 309 308 310 310 310 311 313 315 315 314 315 315 314 313 315 315 314 313 313 311 310 312 312 312 312 312 312 313 313 313 313 312 309 306 305 304 303 303 302 301 301 302 302 302 301 300 299 298
305 306 306 306 307 307 308 308 309 310 311 311 311 311 311 311 310 309 310 311 311 312 313 313 312 313 314 314 314 314 314 313 313 314 315 316 316 309 306 307 307 307 308 308 309 312 313 313 313 313 314 313 312 313 312 312 313 312 311 310 310 310 310 311 311 311 311 311 311 310 310 310 308 307 307 304 303 305 304 301 301 301 302 302 301 300 298 297
304 305 305 305 306 306 306 307 307 308 309 310 310 311 310 311 310 309 309 310 310 311 311 312 312 312 313 313 313 313 313 313 312 312 314 315 313 308 304 305 306 306 306 306 307 310 311 311 311 313 313 311 310 310 309 309 311 311 310 310 310 309 308 309 309 309 310 310 309 309 308 308 308 306 306 305 305 305 303 301 301 302 302 302 301 299 298 296
302 303 303 304 306 305 306 307 307 307 308 308 309 310 310 310 309 309 309 308 309 310 311 311 312 312 312 313 312 312 312 312 312 311 312 313 311 308 306 305 304 305 305 304 305 307 311 312 311 312 312 309 307 308 307 308 308 308 308 309 309 308 307 307 307 307 309 308 308 308 307 307 307 305 305 305 304 303 302 301 301 300 301 301 300 298 297 296
300 300 301 302 302 302 304 306 306 307 308 308 308 308 308 309 308 307 308 309 309 309 309 310 311 311 311 312 312 311 311 311 311 311 311 312 311 310 310 308 306 304 304 305 305 304 309 312 309 309 311 308 305 305 306 306 305 305 306 306 306 305 303 304 304 305 306 306 305 306 305 304 304 302 302 302 301 300 300 299 299 299 299 300 299 298 297 296
299 299 299 300 299 299 301 305 306 306 306 306 307 307 306 306 307 306 306 309 310 310 309 309 310 310 310 311 311 311 310 310 311 310 310 311 310 309 310 310 308 304 303 306 306 304 306 309 306 306 309 306 302 303 304 303 302 302 302 302 301 300 300 301 302 302 302 302 302 302 302 302 301 299 299 299 298 298 297 297 298 299 299 299 298 297 297 296
298 298 298 298 299 299 299 302 304 305 305 305 305 306 305 305 306 305 306 307 308 310 311 309 309 309 309 308 309 309 309 309 309 306 305 307 307 306 308 307 306 305 305 304 305 305 306 307 304 305 308 305 300 300 301 301 300 300 301 300 299 298 299 300 300 300 300 300 300 300 300 301 299 297 296 295 294 294 295 296 297 298 298 298 297 295 294 294
296 297 297 297 299 299 299 301 304 304 304 304 304 304 304 304 304 305 305 305 304 306 308 308 307 308 307 307 307 307 306 306 305 302 301 302 303 302 304 303 302 305 305 303 303 304 305 306 305 305 306 303 300 300 301 301 301 302 301 300 300 298 299 298 298 299 298 298 299 299 299 299 298 296 296 295 293 292 293 294 295 295 296 296 294 293 292 292
Wind_Speed
6 6 6 6 6 5 5 5 5 5 4 5 5 5 5 5 6 6 7 7 7 8 8 9 9 10 10 11 12 14 15 16 17 18 19 15 9 4 2 4 3 1 1 2 2 1 3 4 3 2 1 1 1 1 1 1 2 2 3 3 2 3 3 5 6 4 1 3 6 9 7 4 5 7 7 5 6 12 16 21 24 22 22 23 24 22 21 21
7 7 7 6 6 6 6 6 5 6 6 6 6 6 7 7 8 8 8 9 9 9 10 10 11 11 12 13 14 16 17 18 19 18 13 5 3 7 10 7 3 3 4 3 3 1 3 4 3 1 1 1 1 1 2 3 4 3 3 2 3 5 5 5 6 5 2 4 9 11 7 4 7 9 8 5 8 11 12 22 27 27 26 24 22 19 18 19
8 8 8 7 7 7 7 7 7 7 7 7 8 8 8 8 9 9 10 10 10 11 11 12 12 13 14 15 16 17 17 19 19 10 0 6 9 9 8 4 4 8 6 4 4 3 6 5 2 1 1 1 1 3 3 4 5 4 3 2 6 7 6 9 11 12 10 8 9 11 8 9 13 12 9 7 10 10 8 18 23 24 29 27 24 20 19 19
9 8 8 8 8 8 8 8 8 9 8 8 9 9 9 9 10 10 11 11 11 12 13 13 14 15 15 16 16 15 16 17 10 1 7 8 7 5 2 4 9 11 8 5 5 6 8 6 3 2 4 3 3 4 4 6 5 3 5 5 6 4 4 12 15 16 15 10 10 14 12 14 17 13 10 10 10 8 12 19 21 24 31 31 28 25 23 21
9 9 9 9 9 9 9 9 9 9 9 9 9 9 10 10 11 11 12 12 13 13 14 15 15 16 16 15 14 13 11 8 1 5 5 6 5 4 6 10 13 12 8 5 6 8 9 7 4 5 6 3 3 3 4 10 8 3 6 10 10 5 3 12 15 14 15 13 15 15 11 12 13 11 12 10 6 11 20 27 27 28 32 31 29 26 25 23
10 10 10 10 9 9 10 10 10 10 10 10 10 10 11 11 12 12 13 14 14 14 14 15 15 15 15 14 13 11 6 2 3 3 5 7 7 10 12 14 13 12 8 6 8 8 9 8 6 7 6 3 4 5 6 9 10 5 6 9 13 13 10 15 17 14 15 15 14 12 11 13 11 10 14 13 16 25 31 31 30 29 27 25 25 23 22 21
11 11 11 10 10 10 10 10 11 11 11 11 11 11 12 12 13 13 14 14 14 14 14 14 14 13 13 12 12 9 7 8 8 7 9 10 12 14 13 13 11 10 7 7 9 9 9 10 10 8 5 2 3 7 7 7 9 7 6 7 14 17 15 19 19 17 18 16 17 15 16 17 11 10 12 17 30 35 31 28 27 25 22 22 22 21 20 20
11 11 11 11 11 11 11 11 11 11 11 12 12 12 12 13 13 13 14 13 13 13 13 12 12 11 11 11 10 7 9 11 8 7 10 12 13 12 11 10 9 8 6 6 9 9 10 10 11 8 4 3 4 5 5 5 5 7 6 7 10 12 13 16 17 19 21 21 22 17 17 21 17 13 13 26 37 29 22 22 23 22 23 23 22 21 19 17
11 12 12 12 12 12 12 12 12 12 12 12 12 12 12 12 12 12 12 12 12 11 12 11 11 11 10 11 9 7 10 10 6 6 7 8 10 9 10 10 7 6 5 7 9 11 11 10 10 9 5 5 5 4 2 1 3 5 6 5 6 9 12 15 16 21 23 22 20 11 16 25 21 13 13 26 26 16 18 20 20 23 25 21 17 14 12 12
13 13 12 12 13 12 13 12 12 12 12 12 12 12 12 12 11 11 12 11 11 11 11 11 11 11 11 11 7 5 8 8 6 7 7 7 8 8 10 10 8 7 7 7 11 13 13 10 8 8 7 5 4 4 2 2 3 4 6 8 10 11 15 16 16 25 24 21 19 10 13 24 17 4 8 19 12 11 20 19 20 23 19 12 8 7 8 9
13 13 13 13 13 12 12 12 12 12 12 12 11 11 11 11 11 11 11 11 12 11 11 12 12 12 12 12 9 9 11 10 9 11 11 11 10 10 11 10 10 9 8 9 11 14 15 13 9 6 5 3 3 4 4 4 5 7 9 10 14 14 17 18 18 24 19 12 15 8 8 16 7 2 12 18 11 13 21 20 21 17 13 10 7 6 6 6
13 13 13 13 12 12 12 12 12 12 12 12 11 11 11 11 11 12 12 12 12 12 12 12 11 12 12 14 16 15 15 14 14 13 13 13 13 13 12 12 12 12 12 12 12 14 15 15 12 8 6 3 1 2 3 4 6 9 8 5 11 10 12 19 18 17 9 4 8 4 2 9 2 8 18 18 15 17 21 22 19 13 10 7 7 5 3 2
13 13 13 13 12 12 12 12 12 12 12 12 12 11 11 11 11 12 12 12 12 12 12 12 12 13 12 14 17 16 15 15 14 13 13 14 15 16 15 15 14 13 12 12 13 14 15 15 13 10 8 5 2 2 5 6 6 8 5 1 6 7 6 14 10 5 3 5 7 7 1 7 6 14 19 16 17 19 21 19 12 11 8 7 8 5 5 5
13 13 12 12 12 12 12 12 12 12 12 12 12 12 12 12 12 12 12 12 12 12 11 11 12 12 12 14 16 16 16 16 15 14 13 14 16 16 17 16 14 11 9 11 13 13 14 13 11 9 8 6 5 6 6 6 4 4 3 1 2 3 5 11 7 1 3 5 8 10 2 7 8 15 16 14 16 17 19 13 11 10 8 9 8 8 8 8
12 12 12 12 12 12 12 12 12 12 12 12 12 12 12 12 12 12 12 12 12 12 12 12 12 11 11 15 16 14 14 14 13 13 12 13 14 15 15 14 12 9 8 10 12 13 12 10 9 7 5 5 5 3 4 4 3 2 1 3 2 3 4 11 10 4 4 4 7 10 2 6 8 14 16 16 17 16 15 10 12 9 10 10 9 12 11 11
11 11 11 11 11 11 12 12 12 12 12 12 12 12 13 12 12 12 12 12 12 12 13 12 12 9 8 12 12 10 11 10 8 8 9 11 12 13 12 10 8 7 8 10 11 12 11 8 6 5 4 3 1 3 4 4 4 3 2 4 3 4 2 6 9 4 6 2 3 5 2 3 5 11 17 21 22 19 15 10 10 10 12 12 12 13 13 12
10 10 10 11 11 11 11 12 12 12 12 12 12 12 12 12 12 12 13 12 13 14 13 12 11 9 9 12 11 9 9 8 7 7 8 9 10 10 9 7 6 7 8 9 10 9 8 6 4 4 3 1 3 5 3 2 4 3 1 3 4 5 3 2 6 5 1 3 1 3 3 5 7 12 20 26 25 23 17 8 11 13 13 14 14 14 14 13
10 10 10 10 10 10 11 11 11 12 12 12 13 12 11 12 12 13 14 14 14 12 11 11 8 5 9 13 10 7 5 5 6 6 8 9 9 8 7 6 6 7 6 6 7 7 6 4 4 1 1 1 3 5 3 5 6 4 3 3 4 4 4 4 6 5 4 4 2 4 4 8 9 11 21 24 20 18 12 6 12 14 15 16 16 17 17 17
10 10 10 10 10 10 11 11 11 11 11 10 12 12 11 11 12 12 14 14 12 7 5 8 9 4 4 6 6 5 6 6 6 7 8 9 8 8 8 7 6 6 5 2 4 7 7 3 4 1 1 4 6 7 10 10 8 7 6 4 4 4 5 6 6 5 3 4 5 6 7 8 7 9 14 13 7 6 2 10 14 15 17 19 21 23 23 24
11 10 10 10 10 10 10 10 10 11 11 9 10 10 9 8 6 6 9 12 13 11 10 10 12 14 13 10 9 9 9 8 8 9 10 10 11 10 9 8 6 6 4 3 3 5 7 4 2 5 7 9 11 12 13 10 5 3 3 3 5 5 6 6 7 7 2 1 6 6 5 6 7 9 10 8 6 4 5 14 16 17 19 21 25 27 28 29
11 10 10 10 10 9 9 9 9 9 10 9 8 8 7 5 3 4 6 10 14 16 18 18 18 22 23 21 18 14 12 10 11 13 12 13 13 9 9 8 5 3 4 4 3 2 6 5 6 10 12 12 11 11 10 6 4 3 3 5 5 5 7 7 6 6 2 1 5 3 3 7 9 7 10 12 9 8 8 16 16 18 20 22 25 27 29 30
12 11 11 11 9 8 9 8 7 8 8 7 7 6 6 5 5 6 6 8 14 17 19 21 23 27 28 27 25 22 17 13 14 17 15 14 14 10 9 9 5 3 3 4 3 1 3 4 9 15 13 8 6 4 5 5 5 4 3 3 5 4 5 7 6 5 2 2 4 4 3 8 8 4 10 13 11 12 14 17 16 18 20 21 24 26 28 29
12 12 11 10 8 8 8 7 7 7 7 7 6 5 6 5 4 6 5 6 12 16 18 22 25 28 27 27 26 23 21 17 16 18 16 15 16 13 11 9 5 4 4 4 5 4 4 6 14 19 10 4 6 5 4 4 4 4 4 2 5 4 2 4 5 4 3 1 3 3 3 6 5 4 9 12 14 17 19 20 18 18 20 21 23 25 27 28
12 12 11 9 8 8 9 8 7 7 7 6 6 6 5 4 4 5 6 4 6 12 18 20 20 20 20 19 19 18 19 18 14 12 15 17 15 12 10 10 7 4 5 8 9 8 7 8 13 11 6 7 7 7 5 5 4 4 6 6 6 6 6 6 4 4 4 4 2 2 4 5 3 3 5 7 13 15 16 19 19 18 19 21 23 25 26 27
12 12 10 9 8 8 9 8 8 8 7 7 6 6 4 3 3 4 5 2 3 7 11 11 10 11 12 11 11 12 12 12 11 9 12 18 17 10 6 10 8 5 8 9 8 7 8 11 8 4 5 7 6 6 6 6 3 4 6 9 10 9 8 6 2 4 4 4 3 2 3 5 3 2 4 4 7 8 10 13 14 15 17 21 24 24 24 26
13 12 11 9 8 7 8 8 8 9 8 7 7 5 3 2 1 3 3 2 3 5 4 3 4 4 6 6 8 9 4 6 10 12 12 16 18 10 4 5 5 5 7 6 3 2 6 12 9 6 6 6 6 6 6 7 4 4 5 8 9 6 5 5 3 2 1 4 3 2 1 5 5 2 4 5 5 6 6 8 9 11 14 18 21 22 23 25
14 13 12 11 9 9 8 7 8 9 8 8 8 6 3 2 1 2 3 2 3 2 4 3 3 2 3 6 11 10 2 2 6 10 13 14 15 11 5 2 2 3 4 4 1 2 5 8 6 6 6 5 5 6 5 8 7 4 4 5 6 6 5 5 5 3 3 3 4 3 2 3 6 3 5 7 8 5 3 4 5 9 13 16 19 20 22 24
15 14 13 13 12 11 10 9 9 10 9 8 8 7 4 3 3 2 3 1 2 2 3 2 3 3 4 8 12 7 2 4 4 5 11 12 11 9 5 5 4 4 2 4 3 5 2 4 5 7 6 5 6 5 6 10 5 6 5 6 6 6 5 4 5 2 1 1 4 3 2 2 6 3 2 6 6 4 4 4 4 7 12 15 18 19 20 22
16 15 15 15 14 13 13 13 13 12 10 9 8 7 5 5 4 3 2 2 1 2 2 2 3 4 6 8 8 5 2 3 2 5 10 9 9 6 2 4 4 2 3 3 4 6 1 2 4 7 6 6 6 3 6 9 4 5 5 5 5 5 5 5 5 3 2 2 5 5 4 3 5 3 3 3 3 5 6 4 5 8 11 14 16 18 18 20
18 17 16 15 15 14 14 16 17 14 11 9 8 6 6 6 4 3 3 3 0 1 3 3 3 4 6 5 2 4 3 3 3 7 7 6 8 6 2 2 2 1 2 2 2 6 3 2 0 3 4 5 5 2 2 5 5 5 6 5 6 5 4 4 3 4 2 4 6 8 10 7 4 4 5 4 3 7 8 6 6 8 11 14 15 17 18 18
18 18 17 15 15 15 15 17 17 15 12 9 8 8 7 4 3 3 5 1 2 1 2 2 2 4 5 4 2 4 2 2 5 7 4 3 4 4 2 1 1 2 3 5 3 5 5 2 2 3 4 3 6 3 2 3 4 6 5 4 3 4 4 4 4 4 1 6 7 6 8 7 5 5 3 3 4 7 12 10 10 11 13 16 16 17 17 18
17 18 17 16 15 15 15 15 14 15 13 10 10 10 7 1 1 3 3 2 1 2 2 2 2 3 4 2 2 4 2 2 4 5 3 3 3 3 3 4 3 2 2 4 3 5 4 4 4 3 2 4 5 2 2 5 5 5 4 5 3 2 3 3 2 0 3 7 5 3 5 4 6 5 1 4 5 3 10 13 16 17 18 18 17 17 17 17
18 18 17 17 16 16 15 13 14 15 12 12 12 8 4 1 4 4 3 1 0 1 1 1 2 2 3 2 2 3 2 2 5 4 2 3 2 3 4 3 4 2 1 4 2 2 3 5 3 1 3 6 7 4 2 1 2 5 5 5 4 2 1 3 4 2 4 6 3 3 4 2 4 2 1 4 5 3 12 17 21 22 22 20 18 17 17 16
21 20 18 18 18 18 17 15 15 14 12 13 11 5 2 4 4 3 5 5 1 1 1 2 2 2 3 2 3 2 2 2 4 4 2 3 2 2 4 4 4 2 1 2 1 2 2 5 3 4 2 5 8 6 5 5 4 4 4 5 4 4 5 4 4 4 4 4 3 1 2 3 3 1 3 2 2 8 18 20 20 21 21 20 18 17 16 15
24 22 20 19 18 19 18 17 16 13 12 12 7 2 4 5 2 2 4 4 1 0 1 2 3 3 1 2 2 1 3 2 1 4 2 3 3 3 3 4 5 4 2 2 1 2 3 5 6 3 1 6 7 5 6 6 1 2 3 4 2 4 5 3 4 6 3 2 3 2 2 2 3 1 2 3 6 9 15 18 18 19 18 19 18 16 15 14
22 20 19 19 19 19 18 18 16 13 14 12 4 4 6 3 3 4 2 2 2 3 2 1 3 2 2 2 3 2 1 0 1 2 2 2 3 5 4 3 6 8 5 4 2 1 2 5 5 2 1 5 6 3 4 3 2 1 3 3 4 4 6 2 3 1 3 2 4 2 2 2 0 0 1 3 5 6 9 12 15 17 17 18 17 17 16 14
17 16 17 18 19 19 18 18 15 15 16 11 5 6 4 2 4 4 1 2 2 2 4 1 1 3 3 2 2 3 0 0 1 1 2 2 2 5 5 3 3 8 9 7 3 3 3 4 5 1 4 5 2 1 1 1 3 4 3 5 3 1 3 3 2 2 1 3 4 1 3 3 2 1 0 1 4 6 5 8 12 14 16 17 18 17 16 13
15 15 15 17 18 18 18 17 15 17 14 8 7 9 3 3 5 4 3 2 2 3 3 2 3 2 3 2 2 3 2 2 1 2 2 2 3 4 5 3 2 4 7 7 3 2 2 3 6 2 4 3 2 2 2 4 2 4 3 2 3 2 1 1 2 2 2 4 4 3 3 3 4 4 4 7 10 10 8 7 9 11 16 19 19 18 15 13
16 14 13 15 18 17 17 16 16 18 12 5 8 9 3 2 5 6 6 3 1 2 2 3 3 1 2 4 3 3 2 2 2 2 2 2 3 3 4 2 2 0 2 7 5 2 1 2 5 2 1 2 3 2 3 3 2 1 1 2 1 2 3 2 2 3 3 4 4 5 5 3 5 6 10 14 14 13 12 9 8 13 19 22 21 20 17 15
15 10 9 16 19 18 18 17 17 16 9 5 7 5 1 2 6 11 11 5 1 3 3 3 3 2 3 3 3 2 1 2 4 2 2 3 3 3 2 3 3 2 1 3 4 0 1 2 4 3 2 1 1 2 6 6 3 1 1 2 2 1 1 1 1 2 3 3 3 3 5 5 4 3 8 13 12 13 13 11 10 16 22 23 22 20 18 14
13 5 5 14 17 19 21 17 12 9 4 3 4 2 1 2 3 7 12 11 7 4 3 3 4 5 4 3 3 3 2 3 4 3 3 3 4 4 2 3 4 4 2 2 1 2 1 2 3 3 2 3 5 4 5 7 6 5 4 4 4 4 1 3 4 1 2 3 4 4 6 6 4 1 4 7 8 11 15 14 13 19 24 23 22 19 16 13
12 4 4 11 14 19 21 12 5 5 3 3 3 2 3 3 1 3 7 10 9 5 3 2 4 5 4 4 3 4 3 3 4 4 4 4 6 5 3 3 3 2 3 2 3 3 2 3 3 4 4 5 6 3 1 3 4 4 3 2 3 3 4 4 6 3 1 2 1 2 5 5 3 3 2 5 11 16 21 21 18 21 23 22 20 18 16 13
11 6 6 11 14 20 17 5 3 4 3 3 3 4 5 3 3 4 5 7 6 4 4 3 4 6 5 4 4 4 4 4 5 7 5 5 6 4 3 5 3 2 4 2 2 2 3 2 3 5 4 2 3 4 4 4 4 2 2 1 3 2 3 4 4 3 1 2 0 1 4 4 1 4 1 8 14 18 22 22 19 19 20 20 20 19 18 16
8 7 8 11 18 23 15 4 4 5 5 3 2 4 6 5 6 6 5 6 6 4 3 2 4 7 6 4 5 6 5 4 6 8 7 5 4 2 3 5 4 3 4 2 2 4 3 1 2 3 3 4 3 2 3 4 1 2 2 0 2 3 4 2 1 2 1 4 5 3 5 4 1 4 3 7 11 12 15 16 15 15 18 20 21 20 19 18
6 5 7 13 23 25 13 6 5 5 7 8 6 6 7 6 8 11 8 8 10 7 3 4 7 8 6 5 5 6 7 7 6 5 4 4 3 0 1 3 4 4 3 2 2 3 3 3 3 4 7 8 7 4 3 2 2 1 1 1 2 4 5 3 1 2 2 4 5 5 5 3 2 2 1 2 5 6 7 9 11 13 15 18 21 21 21 20
7 4 3 9 20 23 17 12 7 4 5 8 6 7 10 8 6 10 12 10 12 11 6 5 7 6 4 6 6 6 7 8 7 4 3 4 3 2 1 3 4 5 4 4 4 3 2 3 4 5 8 8 5 5 4 3 3 2 2 2 3 4 4 4 3 3 2 1 3 5 4 2 3 4 4 3 4 4 5 8 13 14 15 17 20 22 21 19
6 3 4 7 10 15 17 14 10 5 3 7 5 4 10 11 5 6 11 10 12 14 9 5 7 7 6 8 8 7 7 8 8 7 5 4 2 3 2 3 3 4 3 5 7 4 2 3 5 5 7 5 2 4 3 3 3 4 3 4 6 5 5 5 5 4 2 1 6 8 5 4 8 8 7 7 7 6 7 12 15 16 18 20 22 22 20 19
7 3 8 10 6 6 10 12 13 9 5 6 4 2 6 10 6 5 8 6 9 14 9 5 9 12 10 8 7 6 7 7 8 8 5 3 2 1 2 3 3 4 3 2 4 3 3 5 5 4 5 2 4 3 3 3 2 2 3 6 8 7 6 7 5 5 5 6 8 8 5 6 10 8 5 8 11 10 11 14 16 16 19 22 23 22 20 19
9 4 6 10 6 3 6 11 14 13 9 6 4 5 9 10 8 6 3 2 4 10 11 7 9 12 10 9 8 7 8 7 7 7 5 4 3 3 2 3 4 5 3 1 2 0 3 3 2 3 3 0 4 3 3 4 2 2 5 8 9 8 5 6 5 8 8 8 9 8 7 9 10 7 5 8 12 13 14 15 15 15 18 22 24 22 20 20
10 6 5 6 5 3 4 9 12 11 9 8 7 8 8 9 10 8 4 4 4 4 8 11 10 8 8 9 10 11 11 9 8 7 6 6 5 3 3 4 2 2 2 2 2 2 1 1 1 3 0 2 1 3 3 4 3 2 6 10 10 5 4 5 8 8 6 7 10 8 8 12 10 5 4 7 10 12 12 13 13 15 18 22 23 21 20 20
12 8 4 3 2 3 4 5 8 7 6 8 9 8 7 10 13 9 5 8 9 4 4 9 10 6 4 7 11 14 14 13 10 7 5 5 5 3 3 4 5 4 3 3 1 1 1 1 1 3 1 2 1 2 3 3 3 4 10 14 12 7 5 7 7 6 7 9 10 8 7 10 8 3 3 5 8 11 12 13 13 15 19 22 22 21 19 18
16 12 6 2 1 3 4 3 5 6 7 8 9 9 8 9 11 9 6 9 11 10 7 7 7 4 2 6 9 12 14 12 9 8 8 5 4 5 3 3 5 4 4 3 1 0 2 3 2 2 2 2 2 4 3 4 4 7 11 10 9 8 9 8 7 8 10 8 6 7 8 9 8 3 3 4 6 9 13 16 17 18 20 21 21 19 16 15
Wind_Direction
213 213 212 214 212 216 217 219 224 223 228 232 235 242 247 253 259 264 266 271 277 281 287 290 294 299 301 305 308 309 311 311 310 310 309 307 294 268 148 127 114 82 346 344 337 251 200 189 204 230 232 172 133 171 171 179 171 137 97 110 220 202 200 195 189 195 168 260 292 315 300 241 276 294 307 301 271 287 292 288 287 279 273 274 280 287 293 301
221 222 223 225 224 228 229 232 238 239 243 246 247 251 257 261 266 270 272 275 278 281 285 288 292 294 297 301 304 307 309 309 310 311 309 305 146 131 123 116 72 355 331 317 302 249 182 170 175 188 99 94 98 182 184 196 185 163 113 138 223 204 213 216 216 243 253 265 285 306 296 251 283 300 312 305 282 296 295 293 294 289 287 288 289 291 294 300
226 227 229 229 231 236 237 241 245 247 251 255 258 261 264 267 270 272 274 276 278 281 284 287 289 291 296 298 301 307 309 311 314 315 104 131 135 131 121 98 1 336 321 292 267 209 182 182 168 195 213 179 211 208 197 197 199 205 149 165 245 219 238 267 267 271 276 283 293 308 304 287 297 302 301 300 299 296 274 286 293 293 301 306 306 303 301 300
234 234 236 235 238 240 242 246 248 252 256 260 266 269 271 273 275 276 277 278 280 283 286 288 290 293 296 298 303 306 312 318 316 158 145 148 154 155 94 351 336 330 314 282 251 209 198 196 170 200 212 212 219 219 216 207 205 199 166 190 236 209 238 269 274 281 288 301 304 307 308 298 300 300 293 304 315 297 276 287 290 292 303 310 312 310 304 299
241 242 243 243 246 248 251 253 256 259 262 266 271 274 276 277 278 279 281 282 284 287 289 292 293 296 298 301 305 307 321 336 294 156 177 191 207 257 306 318 319 321 309 272 236 215 207 196 175 191 205 225 189 184 237 218 201 186 214 225 237 218 221 266 274 281 289 301 305 306 304 296 300 294 288 291 278 275 287 296 297 298 304 310 312 311 305 299
244 246 246 247 250 252 255 257 261 264 267 271 274 277 279 280 282 284 285 288 289 292 293 295 296 298 302 302 304 307 316 310 226 220 228 222 244 273 291 302 307 311 301 256 232 218 206 194 191 192 191 229 193 189 240 224 205 219 255 240 245 246 244 266 271 275 290 299 295 293 290 294 303 295 290 277 264 280 293 298 299 302 308 311 312 312 309 305
244 247 248 251 252 254 257 260 263 266 270 274 276 280 282 284 287 288 290 292 292 295 295 296 297 298 301 301 303 301 273 272 279 263 254 251 260 275 284 293 301 302 288 245 231 220 211 201 202 200 176 222 219 215 246 242 210 216 261 257 257 256 253 264 267 274 288 289 283 287 290 288 288 292 297 283 279 287 297 301 301 305 313 315 315 318 321 318
246 250 252 254 257 259 261 263 267 270 273 275 278 281 283 286 288 289 292 293 294 296 295 297 299 300 304 302 304 296 271 283 295 271 262 259 262 272 275 283 294 294 271 234 228 221 218 208 207 210 186 210 223 226 257 277 223 205 241 264 268 268 269 275 278 283 286 284 286 292 284 277 280 286 284 280 283 292 301 303 306 309 312 316 319 323 327 325
253 255 257 258 260 262 264 266 269 271 274 276 279 281 283 286 287 289 291 292 295 296 297 300 301 302 304 301 302 292 281 291 300 280 267 258 258 264 266 273 281 279 260 230 220 217 217 212 216 219 219 228 228 241 245 256 243 213 230 262 273 277 287 292 291 288 287 284 285 288 280 281 287 291 276 274 281 301 305 305 315 316 316 324 331 331 335 331
257 258 258 260 261 262 264 265 267 270 273 275 278 281 283 284 286 288 289 291 294 294 297 298 298 299 296 295 288 267 283 289 284 284 278 268 263 261 264 266 268 270 264 239 221 217 217 213 218 219 231 242 218 236 212 186 262 279 289 296 292 294 298 297 290 286 286 286 281 259 266 280 284 294 266 272 287 306 299 308 319 322 334 359 15 9 1 340
256 257 257 259 259 261 262 263 265 267 270 273 276 278 280 282 284 285 287 289 291 293 295 294 295 292 291 287 255 244 282 286 277 281 278 276 271 260 260 258 260 263 262 254 234 225 222 218 217 211 224 234 215 252 252 241 285 315 325 316 304 313 310 296 284 281 283 287 279 237 249 281 279 181 251 268 295 295 293 305 312 332 13 44 50 25 358 336
256 257 258 259 260 261 263 264 265 267 270 273 274 276 277 280 282 284 286 289 290 292 292 292 293 290 292 283 262 264 284 283 277 275 270 271 268 261 259 255 258 265 266 259 244 232 226 223 222 220 225 220 211 304 266 275 319 319 329 326 306 330 317 288 279 277 268 260 269 190 268 299 228 218 251 272 290 285 288 297 311 356 40 58 58 36 24 45
255 257 259 259 261 262 263 265 266 269 270 272 274 276 279 281 284 287 288 290 291 291 290 290 288 291 290 278 273 279 282 276 273 269 262 261 262 264 266 267 270 271 266 252 243 236 227 226 225 227 237 230 220 272 280 307 327 311 319 31 307 340 315 279 277 280 267 256 229 156 205 287 251 247 259 283 289 286 291 299 335 24 57 80 83 77 79 94
255 258 259 260 262 262 263 265 267 269 271 275 279 281 284 286 287 289 289 290 289 287 287 284 284 289 280 271 279 283 277 274 272 266 261 258 260 265 270 276 278 270 258 243 238 234 228 229 231 234 241 240 251 275 298 329 334 300 308 36 308 304 277 283 294 301 312 288 200 162 203 261 265 272 274 290 292 294 298 318 19 47 83 93 98 95 90 95
254 257 259 261 262 263 265 267 268 271 275 280 284 286 287 288 288 288 288 287 286 286 284 283 284 283 273 272 278 279 274 271 270 266 261 259 260 265 270 274 273 262 247 235 232 231 230 228 229 234 236 244 263 299 336 347 345 3 291 302 310 214 261 303 303 228 224 282 172 156 224 263 266 276 282 296 296 295 302 346 40 70 98 103 104 97 94 92
251 254 257 260 262 265 267 268 272 276 280 283 283 285 285 286 286 285 285 284 284 282 281 283 280 271 268 277 276 270 271 271 271 267 255 255 258 262 268 268 262 250 234 229 230 230 233 231 230 235 230 233 198 83 39 358 329 348 212 251 267 223 252 316 307 247 196 209 155 167 223 267 271 278 291 301 299 299 314 2 60 96 103 105 101 97 97 92
250 252 255 259 262 265 267 270 274 277 279 281 280 280 281 282 283 282 281 279 278 276 277 276 271 266 259 265 270 266 272 278 272 257 247 249 254 258 261 253 239 230 225 226 230 227 229 222 200 221 234 204 117 99 57 314 282 304 244 232 247 232 216 275 297 303 118 114 186 247 240 246 272 287 291 294 297 304 321 11 91 106 102 102 99 96 93 86
252 254 257 260 262 264 267 269 271 274 275 277 277 277 277 280 281 279 275 271 269 271 275 259 242 267 266 253 252 261 278 282 259 242 240 239 241 246 235 225 222 216 213 217 224 209 199 192 155 183 333 116 128 125 173 229 221 227 218 225 257 246 234 243 266 298 358 15 286 288 284 261 275 283 281 290 303 314 329 65 109 109 103 101 95 91 87 83
252 255 257 258 259 260 262 265 267 270 272 274 278 282 286 286 283 275 268 262 252 248 266 237 205 207 255 226 221 258 286 276 247 227 229 225 220 220 207 205 203 190 184 183 212 189 170 124 92 139 227 203 198 180 201 217 204 210 220 218 243 253 256 248 251 266 316 333 281 277 280 273 284 276 281 303 335 336 15 118 114 107 102 97 93 89 88 86
249 250 250 251 253 255 258 262 267 271 274 276 278 284 289 287 287 277 263 254 245 242 252 243 230 241 250 249 256 274 277 259 240 227 225 222 215 210 202 200 186 180 188 168 195 192 167 153 159 200 215 211 210 206 212 222 216 227 247 255 251 252 270 263 263 274 279 282 268 268 277 284 284 279 308 360 47 28 113 123 109 102 99 93 93 91 89 89
243 242 242 245 246 249 253 259 265 271 276 277 274 277 272 256 253 279 275 265 259 255 255 254 252 253 256 259 262 266 264 257 249 239 233 225 213 204 199 186 156 191 215 161 136 141 163 190 219 218 219 215 217 216 216 233 259 264 247 266 272 253 263 262 262 285 317 199 262 306 335 295 283 294 351 25 42 29 88 114 103 102 100 95 95 93 93 93
241 238 238 241 240 242 247 253 260 263 267 269 268 268 261 252 253 275 290 282 274 268 263 260 257 255 256 257 257 257 255 257 255 244 234 219 203 199 191 170 162 202 178 136 110 116 193 222 233 231 227 224 248 229 191 217 235 240 226 250 266 251 275 282 275 296 346 178 255 321 336 286 290 351 29 38 54 54 81 104 103 106 103 98 99 97 98 97
244 240 237 236 229 231 240 248 251 252 256 257 257 254 255 260 264 288 301 284 283 281 269 261 256 254 254 255 255 250 240 240 250 245 231 209 196 198 187 166 183 189 149 171 173 172 209 228 234 236 223 200 258 245 183 220 235 223 210 217 250 244 251 276 282 299 319 292 269 316 322 281 287 65 56 52 71 73 82 96 100 104 104 103 104 102 101 98
247 241 236 229 220 226 237 248 247 246 246 240 241 242 245 259 270 307 311 278 284 284 270 262 255 254 254 253 251 241 229 231 244 243 225 209 194 194 196 184 181 183 193 198 192 198 222 229 230 229 187 175 233 251 220 225 248 237 218 215 238 239 218 226 279 320 328 347 2 8 340 296 269 114 88 69 77 77 82 91 92 96 103 106 106 103 100 99
245 238 230 220 219 227 234 241 242 242 240 225 224 228 229 252 279 326 330 314 291 274 266 257 244 245 246 243 235 220 219 228 230 224 217 209 197 188 200 193 179 200 216 201 197 217 242 244 230 185 161 174 201 246 229 196 220 272 230 214 222 230 227 227 304 8 4 335 330 28 342 294 314 82 134 114 77 71 74 82 88 96 104 105 103 101 101 100
240 233 221 212 213 221 229 235 237 237 234 220 213 210 213 234 299 349 4 26 306 257 226 208 210 221 217 209 195 181 191 238 220 210 205 205 205 197 189 191 184 211 210 189 196 222 239 240 222 173 170 159 175 239 228 165 166 269 240 208 210 211 216 215 171 100 145 259 285 55 121 272 310 356 161 141 94 85 75 72 88 102 105 105 104 104 104 103
235 227 214 207 208 216 224 226 225 227 224 216 208 199 204 191 116 33 38 14 291 217 149 166 182 175 180 175 169 161 163 212 187 198 198 198 204 200 202 224 190 213 191 135 204 243 211 225 220 189 182 164 190 243 224 159 146 240 238 159 153 157 178 187 149 148 217 256 314 11 112 253 289 275 181 142 109 94 90 82 96 109 109 109 109 109 109 108
233 223 211 209 214 222 226 222 219 221 220 213 203 197 189 158 149 107 73 344 272 125 121 159 147 152 160 161 168 163 138 149 141 188 189 185 193 190 213 231 182 210 212 129 206 259 198 199 214 190 182 199 216 233 189 156 154 240 214 128 125 142 151 133 111 125 299 343 302 294 122 244 271 269 167 142 123 136 164 157 144 131 122 117 114 113 112 112
230 222 215 213 218 226 229 228 225 220 217 209 199 195 178 162 154 96 86 230 245 100 139 160 137 157 147 147 178 192 153 160 167 181 176 181 194 184 215 222 181 220 268 150 208 262 269 211 207 164 165 208 212 215 175 163 186 217 153 98 65 71 78 79 98 102 34 332 244 215 171 214 268 271 182 182 178 179 179 174 171 152 135 125 120 120 118 116
228 220 216 216 222 229 231 231 225 215 209 203 197 186 166 160 128 100 204 223 36 95 140 156 178 168 142 121 186 214 196 205 164 152 166 185 194 191 180 200 146 131 309 354 256 262 291 346 233 164 196 201 157 110 156 163 160 128 100 60 30 29 42 49 67 82 48 283 242 209 192 191 260 281 192 201 232 173 159 161 176 163 147 137 130 128 125 123
223 214 215 220 226 228 228 229 218 202 197 191 185 175 158 145 95 148 210 221 34 132 125 165 198 149 150 137 172 202 183 199 169 148 156 167 171 176 131 136 88 69 352 327 301 304 326 328 267 246 223 160 110 85 24 45 94 102 89 73 47 341 8 27 0 46 112 256 257 221 188 172 224 262 223 271 290 172 162 167 173 166 157 149 141 137 134 130
219 213 214 219 224 222 222 222 203 188 188 183 180 171 145 120 212 189 233 2 14 206 156 192 206 164 178 160 178 194 163 193 189 160 156 152 161 182 174 180 168 75 340 262 271 338 320 249 266 311 250 173 126 94 2 9 46 87 102 101 92 315 349 359 300 78 215 251 265 184 149 167 232 246 252 312 314 178 160 162 163 160 158 153 147 145 142 138
219 216 217 217 219 215 207 200 186 180 185 182 180 162 120 217 219 184 216 262 227 215 133 136 163 144 142 137 230 193 155 209 192 175 167 132 148 238 255 218 169 130 239 210 238 337 302 294 305 346 275 201 158 149 209 258 132 140 145 137 135 155 193 254 254 261 260 262 271 161 149 225 265 293 332 311 317 137 141 151 158 156 155 153 151 151 148 144
223 217 218 217 216 208 192 181 177 175 179 178 169 134 128 220 214 171 211 226 250 356 45 64 93 89 96 155 231 174 149 244 182 162 159 111 117 268 270 244 189 156 151 160 189 186 231 304 244 186 236 187 175 185 175 144 154 181 156 139 150 159 174 216 220 215 247 272 286 224 173 206 212 284 308 316 26 120 136 148 154 153 154 154 153 155 153 148
225 214 212 213 210 200 186 181 179 173 176 173 155 146 202 211 190 172 216 226 240 19 44 46 79 65 3 281 275 187 168 243 156 133 149 151 172 202 215 219 191 166 136 153 231 185 190 261 249 230 176 165 182 199 144 111 110 230 121 115 172 182 171 205 208 182 185 280 285 222 211 214 174 249 327 83 88 112 133 144 149 151 156 157 157 160 158 153
214 202 203 206 200 193 187 187 183 179 181 171 158 226 219 212 176 182 207 185 174 143 115 44 74 88 286 292 307 298 141 165 116 132 211 202 201 209 210 224 192 173 169 175 215 215 201 263 281 337 272 200 194 190 153 146 205 183 122 180 217 176 142 166 259 175 116 237 260 199 208 296 26 279 7 95 105 116 132 143 151 156 160 162 165 165 164 161
198 195 202 201 194 192 193 191 183 181 183 174 195 229 215 217 199 189 195 141 147 124 119 155 168 161 219 245 269 275 312 279 214 158 220 243 239 206 199 244 201 180 198 204 219 230 207 266 283 182 223 247 203 127 15 50 129 131 174 215 205 118 94 109 239 327 35 242 267 228 197 224 230 225 333 139 168 175 173 163 161 165 169 172 173 172 172 170
199 204 208 204 200 198 196 193 185 183 182 179 225 233 208 214 213 189 187 163 110 77 104 186 209 160 177 199 243 241 180 191 203 161 197 247 250 190 167 215 212 189 215 205 209 263 181 266 285 210 200 277 24 80 339 352 73 141 196 217 126 147 249 109 166 217 235 245 273 290 257 224 210 195 184 199 198 189 188 180 174 181 183 182 180 179 180 179
200 203 210 213 212 209 201 197 192 187 185 195 229 231 197 201 234 222 218 222 141 126 142 212 210 171 176 177 202 229 194 187 189 180 194 208 238 200 145 172 201 218 215 177 180 258 131 230 283 302 213 290 32 83 203 268 319 65 327 313 76 162 190 171 170 180 204 240 260 288 297 267 232 197 183 198 196 183 180 181 187 194 191 188 186 184 186 186
195 194 211 214 212 215 209 203 200 193 193 214 221 221 159 196 241 235 230 235 182 175 208 205 183 207 221 196 197 210 214 209 193 194 219 213 247 251 178 160 169 158 59 144 167 220 88 210 261 310 324 240 179 207 196 196 197 138 212 254 252 228 197 247 242 140 152 204 221 260 278 265 253 198 189 200 190 176 178 176 186 197 195 193 191 189 190 187
194 192 226 208 205 210 205 200 205 204 212 235 208 173 187 209 236 236 232 234 235 227 205 183 192 202 205 210 202 173 182 223 201 203 235 230 238 253 226 161 159 164 96 73 165 201 185 194 223 262 273 205 226 239 201 186 174 162 186 202 203 199 182 254 261 223 145 196 188 215 262 267 264 259 218 199 171 171 179 175 182 195 196 196 196 194 193 190
188 193 216 198 196 198 193 193 212 208 219 236 204 175 196 202 192 211 220 225 233 238 221 212 218 208 205 211 190 167 189 216 206 211 240 235 223 229 207 162 155 155 134 144 225 208 132 126 195 241 228 211 238 273 198 174 142 136 177 174 165 155 135 194 235 243 237 242 154 176 257 270 272 298 272 177 167 172 176 177 184 194 197 197 197 196 196 197
192 196 192 192 191 184 181 196 233 207 229 243 225 219 209 200 196 191 196 210 218 210 206 219 209 209 226 217 192 195 205 212 219 220 234 243 232 227 174 167 171 143 140 171 247 175 109 116 204 252 283 298 302 331 359 30 84 124 264 136 140 161 146 174 205 182 179 250 215 165 254 259 320 341 1 154 162 168 175 182 186 191 197 198 198 200 200 200
196 195 189 191 187 178 178 213 211 206 232 228 234 239 228 228 217 199 184 198 206 193 196 224 207 211 225 206 201 210 200 211 235 227 222 230 232 207 160 176 191 185 176 199 201 175 181 170 165 218 275 306 312 327 345 349 49 195 255 232 139 129 116 113 143 132 185 224 203 204 247 253 355 5 43 133 154 167 179 189 192 194 199 200 201 203 203 203
175 187 197 193 185 182 195 226 202 208 220 214 227 227 224 243 230 216 209 205 208 202 198 231 218 213 212 193 204 214 204 217 240 234 221 229 250 259 166 212 223 214 222 218 161 150 181 192 164 191 228 243 242 225 224 250 224 194 257 240 164 139 145 147 150 184 218 214 200 215 248 271 350 359 7 133 165 174 178 191 204 207 204 203 204 204 203 203
167 179 194 189 190 199 222 230 212 220 210 204 224 224 218 233 237 215 208 214 222 216 218 236 218 215 217 198 210 226 220 223 229 228 218 217 255 309 339 303 265 232 224 199 173 133 138 209 211 209 232 242 227 213 203 147 141 199 242 224 211 204 187 167 159 189 211 241 240 237 230 256 287 249 227 235 226 209 205 214 221 220 214 212 211 206 202 200
169 189 180 170 192 217 233 232 218 218 197 188 200 215 215 222 236 214 202 207 216 212 224 246 212 211 220 205 215 233 225 224 226 226 222 203 237 299 314 321 287 247 233 191 185 151 118 233 229 215 240 251 155 181 192 125 152 202 218 236 239 227 190 189 209 202 156 197 254 246 220 220 252 240 205 204 226 230 225 225 228 229 227 222 214 205 199 197
182 217 189 175 182 215 225 221 211 208 210 200 204 245 225 217 214 210 204 205 206 202 209 240 222 219 219 203 209 231 225 225 229 224 214 190 185 255 298 308 272 262 288 235 198 151 140 226 226 194 228 232 109 149 176 135 165 222 231 245 250 241 201 190 215 211 185 212 249 255 229 220 247 251 191 184 207 218 226 232 236 239 234 222 208 199 195 196
199 231 198 186 202 227 212 205 198 201 215 212 213 242 237 229 223 218 197 163 213 211 206 220 229 222 214 199 201 220 222 219 231 228 201 188 192 172 209 273 253 243 257 272 269 242 138 213 213 162 213 82 108 155 167 142 159 251 251 246 249 247 202 168 204 225 219 233 255 265 263 255 256 251 214 207 215 222 233 239 239 236 226 212 200 196 197 200
203 216 205 197 227 249 211 191 184 196 216 214 222 235 233 233 233 232 212 181 204 231 215 221 231 220 207 206 210 225 227 215 227 233 200 197 218 192 200 230 207 203 211 193 274 295 155 203 73 115 168 321 87 135 116 117 143 234 262 258 253 239 178 186 219 229 232 250 255 257 266 268 259 215 204 230 216 207 217 222 220 217 207 196 193 195 198 200
204 198 183 170 220 222 208 190 177 188 211 210 219 225 219 227 227 222 234 228 221 221 208 218 229 224 210 212 214 226 230 219 214 210 180 196 213 184 192 198 153 147 200 200 227 297 171 195 44 86 140 262 209 123 89 59 41 291 271 264 254 234 216 224 221 207 209 230 246 250 251 260 257 182 182 220 193 185 195 197 193 190 188 188 188 188 191 196
210 208 198 155 226 215 196 171 167 189 209 207 211 216 215 223 216 200 227 249 229 222 229 220 205 193 211 225 226 235 238 227 196 148 120 120 121 96 95 136 136 148 185 186 179 4 150 151 131 127 170 207 165 150 114 49 359 280 264 254 240 229 232 242 241 228 214 202 216 235 235 248 261 251 228 220 187 190 195 189 184 181 181 184 185 184 190 199